STARLINK-3829, 52348

Orbit data source: Space-Track

STARLINK-3829, 52348 is a payload satellite owned by SpaceX/Seattle (US) in LEO that was launched on Fri, 29 Apr 2022 UTC via an FALCON 9 launch vehicle from the Air Force Eastern Test Range (AFETR). Payload-class satellites include a variety of spacecraft equipped with specific instruments for various scientific and technological missions. These include communications satellites like Starlink; space stations such as the ISS; scientific satellites like the Hubble; Earth observation satellites from companies like Planet Labs, Umbra, and HawkEye 360; GPS; miniature CubeSats for education and research; and military/defense satellites.

Loading next visibility...
Identifier
52348, 2022-045T
Orbit
LEO
Country
Flag of USUS
Related business
Manufacturer
SpaceX/Seattle
Mission
Operational Commercial Communications
Bus & Motor
STARLINK, Unknown motor
Mass
297 kg wet, ~275 kg dry
Launch date (UTC)
2022-04-29 (4 years ago)
Launch vehicle
FALCON 9
Launch site
Air Force Eastern Test Range (AFETR)
Object type
Payload
Rocket body
Debris
Shape & HBR
Box + 1 Pan, 10.1 m
Radar Cross Section
11.087 m², Large (>1 m²)

Expand to show TLE details & history
Last TLE update: 7 hours ago

TLE from 7 hours ago
0 STARLINK-3829
1 52348U 22045T   26119.83730691 -.00000507  00000-0 -13752-4 0  9997
2 52348  53.2179 329.5091 0001274  89.9700 270.1438 15.08830601223506
Epoch: 2026-04-29T20:05Z
TLE epoch observation values (Epoch: 2026-04-29T20:05:43.317Z)
Latitude
-0.00001°
Longitude
170.28607°
Altitude
540.668 km
Speed
7.593 km/s
True Right ascension
21h 58m 02s
True Declination
0° 00' 00"
Sunlit
Object was in daylight at epoch
Visualization orbit readout
Latitude
Unknown
Longitude
Unknown
Altitude
Unknown
Speed
Unknown
Apparent Right ascension
Unknown
Apparent Declination
Unknown
Sunlit
N/A
Visualization observer readout
Local Sidereal Time
10:29:18
Azimuth
Unknown
Elevation
Unknown
Doppler factor
Unknown
Orbital elements
Apogee altitude
540.898 km
Perigee altitude
539.136 km
Semi-major axis
6,918.154 km
Eccentricity
0.00013
Inclination
53.2179°
RAAN
329.5091°
Arg. of periapsis
89.97°
True anomaly
270.1292°
Mean anomaly
270.1438°
Eccentric anomaly
270.1365°
Mean motion
3.77188 °/min
Orbital period
95.44 mins
BSTAR
-0.000013752
Loading maneuver chart data...
Computing Atmospheric mass density...
Loading historical data...
Loading historical data...
Loading historical data...
Loading historical data...
Loading historical data...
Loading historical data...
Loading historical data...

Documentation

Showing up to 5 results
|